THORAD AGENA D DEB, 4643

Orbit data source: Space-Track

THORAD AGENA D DEB, 4643 is space debris in SSO originally from a launch on Wed, 08 Apr 1970 UTC launched from the Air Force Western Test Range (AFWTR). Debris objects in space refer to the collection of defunct objects orbiting the Earth. Examples of debris include non-operational satellites, rocket bodies, and fragments generated from explosions, collisions, or faulty payload assembly.

Loading next visibility...
THORAD AGENA D DEB details
Identifier
4643, 1970-025AB
Orbit
SSO
Last TLE update21 hours ago
Origin
Flag of USGSFC (US)
ManufacturerUnknown
MissionSpacecraft
Bus & MotorUnknown
MassUnknown
Launch date (UTC)
1970-04-08 (55 years ago)
Launch vehicleUnknown
Launch site
Air Force Western Test Range (AFWTR)
Object type
Payload
Rocket body
Debris
Shape & HBRUnknown
Radar Cross SectionSmall (<0.1 m²)

Expand to show TLE details & history

TLE from 21 hours ago
0 THORAD AGENA D DEB
1 04643U 70025AB  24360.62440793  .00000319  00000-0  52451-3 0  9994
2 04643  99.4523 222.7645 0010925 137.8280 290.4780 13.54985576698865
Epoch: 2024-12-25T14:59Z
Definitive object data (Epoch: 2024-12-25T14:59:08.845Z)
Latitude66.40459°
Longitude-118.92168°
Altitude1,062.547 km
Speed7.328 km/s
True Right ascension13h 21m 55s
True Declination66° 17' 00"
Sunlit
Object was in daylight at TLE epoch
Visualization TLE readout
Latitude-39.68629°
Longitude-87.9114°
Altitude1,077.115 km
Speed7.309 km/s
Apparent Right ascension18h 46m 59s
Apparent Declination-56° 40' 53"
Sunlit
Object is in daylight
Visualization observer readout
Local Sidereal Time11:04:28
Azimuth134.604° SE
Elevation-45.925°
Doppler factor1
Orbital elements
Apogee altitude1,059.371 km
Perigee altitude1,043.137 km
Semi-major axis7,429.391 km
Eccentricity0.0010925
Inclination99.4523°
RAAN222.7645°
Arg. of periapsis137.828°
True anomaly290.36066°
Mean anomaly290.478°
Eccentric anomaly290.41934°
Mean motion3.38933 °/min
BSTAR0.00052451
Orbital period106.22 mins
Loading maneuver chart data...

THORAD AGENA D DEB Visibility forecast

Observer location: undefined°, undefined

Span
Click to sort rows by Start time (UTC) header in descending order
Start Az.
Max El. time (UTC)
Max El. Az.
Max El.
End time (UTC)
End Az.
9 mins2024-12-26 13:50:05.130Z116.088° SE2024-12-26 13:55:05.130Z55.944° ENE26.132°2024-12-26 13:59:05.130Z11.519° NNE
11 mins2024-12-26 15:34:05.130Z191.84° SSW2024-12-26 15:39:05.130Z259.183° W36.099°2024-12-26 15:45:05.130Z332.751° NNW
8 mins2024-12-27 02:44:05.130Z54.337° ENE2024-12-27 02:47:05.130Z88.403° E21.237°2024-12-27 02:52:05.130Z142.016° SSE
10 mins2024-12-27 04:28:05.130Z1.208° NNE2024-12-27 04:32:05.130Z308.359° NW39.404°2024-12-27 04:38:05.130Z215.351° SW
|